Location: Casilda
(33.0440°S, 61.1680°W)
Time: 23:59:05
(UTC-03:00)

Tiangong 2 - Visible Passes

Search period start: 24 April 2018 00:00
Search period end: 04 May 2018 00:00
Orbit: 381 x 388 km, 42.8° (Epoch: 24 April)

Date Brightness Start Highest point End Pass type
(mag) Time Alt. Az. Time Alt. Az. Time Alt. Az.
26 Apr 2.9 19:47:21 10° N 19:49:12 19° NNE 19:49:12 19° NNE visible
27 Apr 3.2 20:23:32 10° WNW 20:25:03 26° WNW 20:25:03 26° WNW visible
28 Apr 1.7 19:24:10 10° NW 19:27:11 41° NE 19:28:34 25° E visible
29 Apr 1.8 20:01:10 10° WNW 20:04:12 47° SSW 20:04:12 47° SSW visible
30 Apr 1.1 19:01:26 10° WNW 19:04:38 88° NE 19:07:31 12° ESE visible
30 Apr 4.3 20:39:10 10° WSW 20:39:44 13° WSW 20:39:44 13° WSW visible
01 May 2.6 19:39:00 10° W 19:41:50 29° SSW 19:42:58 23° SSE visible
02 May 3.8 20:17:12 10° SW 20:18:21 15° SSW 20:18:21 15° SSW visible
03 May 3.1 19:16:56 10° WSW 19:19:26 20° SSW 19:21:28 13° SSE visible
